Find GSAT-6

NORAD ID: 40880 Int'l Des: 2015-041 Owner: ISRO Country: IN operational
HEOCIRCULARGSO

Current View

Loading 3D Globe...

About GSAT-6

Description loading...

Upcoming Passes

Passes for default location (London). Set your location on the main map for personalized predictions.

Altitude History

Loading altitude history...

Two-Line Element Set

1 40880U 15041A 26151.17530978 -.00000149 00000-0 00000+0 0 9990
2 40880 1.8763 82.7966 0003351 343.2709 328.2381 1.00272697 39424
Epoch: May 31, 2026 • Age: 11 hours

Current Status

Altitude 35794.4 km
Velocity 3.07 km/s
Sub-Earth Point 1.73°N, 82.55°E
Launch Date Aug 27, 2015
Age 10.7 years
Type other

Technical Details

Classification Payload
Mass 2117.00 kg
Dry Mass 985.00 kg
Total Mass 2217.00 kg
Length 3.60 m
Diameter 2.00 m
Span 9.50 m
Shape Box + 2 Pan
Manufacturer ISAC
Bus Type I2K
Phase Status In Orbit
Owner/State ISRO/IN

Most Searched